DW8935 Weather Reports


time (UTC)temp
F
wind
direction
speed
knots
gust
knots
rain 1hr
in
rain 24hr
in
rain mn
in
humidity
%
barometer
mb
20260831053024 67 208 0.0 2.6 0.00 0.00 0.00 58 1028.0
20260831051527 67 209 0.0 0.0 0.00 0.00 0.00 58 1028.3
20260831050019 67 203 0.0 0.0 0.00 0.00 0.00 58 1028.6
20260831044517 67 238 0.0 4.3 0.00 0.00 0.00 59 1029.0
20260831043013 66 204 0.0 2.6 0.00 0.00 0.00 58 1029.1
20260831041517 65 126 0.0 3.5 0.00 0.00 0.00 60 1029.5
20260831040009 65 146 0.0 0.9 0.00 0.00 0.00 60 1029.6
20260831034507 64 190 0.0 1.7 0.00 0.00 0.00 61 1029.8
20260831033005 64 164 0.0 0.0 0.00 0.00 0.00 63 1030.1
20260831031501 63 251 0.0 0.0 0.00 0.00 0.00 64 1030.4
20260831030112 63 273 0.0 0.0 0.00 0.00 0.00 64 1030.7
20260831024636 62 298 0.0 0.0 0.00 0.00 0.00 67 1031.0
20260831023053 61 5 0.0 0.0 0.00 0.00 0.00 68 1031.3
20260831021553 60 198 0.0 0.0 0.00 0.00 0.00 70 1031.7
20260831020048 59 270 0.0 2.6 0.00 0.00 0.00 71 1032.0
20260831014545 59 149 0.0 3.5 0.00 0.00 0.00 72 1032.2
20260831013049 58 161 0.0 0.0 0.00 0.00 0.00 74 1032.3
20260831011540 57 219 0.9 2.6 0.00 0.00 0.00 75 1032.5
20260831010038 57 220 0.0 0.0 0.00 0.00 0.00 76 1032.5
20260831004538 56 288 0.0 0.0 0.00 0.00 0.00 76 1032.7
20260831003036 56 272 0.0 0.0 0.00 0.00 0.00 77 1032.8
20260831001534 55 198 0.0 1.7 0.00 0.00 0.00 78 1033.0
20260831000033 55 215 0.0 2.6 0.00 0.00 0.00 80 1032.9
20260830234532 55 259 0.0 0.9 0.00 0.00 0.00 81 1033.0
20260830233030 54 250 0.0 1.7 0.00 0.00 0.00 82 1033.0
20260830231532 54 260 0.0 1.7 0.00 0.00 0.00 84 1033.0
20260830230034 54 224 0.0 1.7 0.00 0.00 0.00 86 1032.9
20260830224538 53 212 0.0 0.0 0.00 0.00 0.00 87 1032.9
20260830223028 53 232 0.0 2.6 0.00 0.00 0.00 88 1033.0
20260830221527 53 242 0.0 1.7 0.00 0.00 0.00 89 1032.9
20260830220027 52 262 0.0 2.6 0.00 0.00 0.00 89 1033.0
20260830214528 52 228 0.9 3.5 0.00 0.00 0.00 89 1032.8
20260830213027 52 286 0.0 0.0 0.00 0.00 0.00 89 1032.7
20260830211527 52 269 0.0 0.0 0.00 0.00 0.00 88 1032.6
20260830210026 53 271 0.0 1.7 0.00 0.00 0.00 88 1032.6
20260830204527 53 290 0.0 0.9 0.00 0.00 0.00 88 1032.5
20260830203033 53 278 0.0 1.7 0.00 0.00 0.00 87 1032.4
20260830201539 53 279 0.0 0.9 0.00 0.00 0.00 86 1032.4
20260830200026 53 280 0.0 2.6 0.00 0.00 0.00 85 1032.3
20260830194525 52 244 0.0 0.0 0.00 0.00 0.00 83 1032.4
20260830193024 52 238 0.0 0.0 0.00 0.00 0.00 83 1032.4
20260830191526 52 238 0.0 0.0 0.00 0.00 0.00 82 1032.3
20260830190031 53 238 0.0 0.0 0.00 0.00 0.00 82 1032.2
20260830184523 53 238 0.0 0.0 0.00 0.00 0.00 82 1032.2
20260830183022 53 238 0.0 0.0 0.00 0.00 0.00 82 1032.3
20260830181521 53 238 0.0 0.0 0.00 0.00 0.00 82 1032.3
20260830180021 53 238 0.0 0.0 0.00 0.00 0.00 81 1032.3
20260830174520 53 240 0.0 0.0 0.00 0.00 0.00 81 1032.4
20260830173027 53 275 0.0 0.0 0.00 0.00 0.00 82 1032.5
20260830171518 53 275 0.0 0.0 0.00 0.00 0.00 83 1032.6
20260830170017 53 245 0.0 0.0 0.00 0.00 0.00 85 1032.7
20260830164608 53 245 0.0 0.0 0.00 0.00 0.00 85 1032.8
20260830150025 53 198 0.0 0.0 0.00 0.00 0.00 88 1033.0
20260830144525 53 198 0.0 0.0 0.00 0.00 0.00 88 1033.0
20260830143023 53 189 0.0 0.0 0.00 0.00 0.00 88 1033.1
20260830141521 53 189 0.0 0.0 0.00 0.00 0.00 88 1033.2
20260830140019 53 189 0.0 0.0 0.00 0.00 0.00 89 1033.3
20260830134524 53 189 0.0 0.0 0.00 0.00 0.00 89 1033.4
20260830133019 53 189 0.0 0.0 0.00 0.00 0.00 89 1033.5
20260830131520 53 189 0.0 0.0 0.00 0.00 0.00 88 1033.5
20260830130021 53 189 0.0 0.0 0.00 0.00 0.00 88 1033.5
20260830124520 52 189 0.0 0.0 0.00 0.00 0.00 89 1033.5
20260830123019 52 189 0.0 0.0 0.00 0.00 0.00 89 1033.5
20260830121518 52 189 0.0 0.0 0.00 0.00 0.00 89 1033.4
20260830120018 52 189 0.0 0.0 0.00 0.00 0.00 88 1033.5
20260830114520 52 189 0.0 0.0 0.00 0.00 0.00 88 1033.3
20260830113019 51 189 0.0 0.0 0.00 0.00 0.00 87 1033.3
20260830111517 51 189 0.0 0.0 0.00 0.00 0.00 87 1033.3
20260830110017 52 189 0.0 0.0 0.00 0.00 0.00 86 1033.3
20260830104617 52 189 0.0 0.0 0.00 0.00 0.00 86 1033.1
20260830103016 53 189 0.0 0.0 0.00 0.00 0.00 86 1033.0
20260830101520 53 189 0.0 0.0 0.00 0.00 0.00 86 1033.0
20260830100016 52 189 0.0 0.0 0.00 0.00 0.00 85 1033.0
20260830094514 53 189 0.0 0.0 0.00 0.00 0.00 84 1032.8
20260830093015 53 189 0.0 0.0 0.00 0.00 0.00 84 1032.7
20260830091514 54 189 0.0 0.0 0.00 0.00 0.00 83 1032.6
20260830090033 54 189 0.0 0.0 0.00 0.00 0.00 82 1032.7
20260830084515 55 189 0.0 0.0 0.00 0.00 0.00 81 1032.4
20260830083032 55 189 0.0 0.9 0.00 0.00 0.00 79 1032.3
20260830081513 56 189 0.0 2.6 0.00 0.00 0.00 78 1032.2
20260830080013 57 169 0.0 4.3 0.00 0.00 0.00 75 1032.1
20260830074513 58 155 1.7 5.2 0.00 0.00 0.00 72 1032.2
20260830073013 59 196 0.0 5.2 0.00 0.00 0.00 70 1032.2
20260830071516 60 192 0.9 5.2 0.00 0.00 0.00 67 1032.1
20260830070016 61 242 0.0 2.6 0.00 0.00 0.00 62 1032.1
20260830064523 62 242 0.0 3.5 0.00 0.00 0.00 60 1032.0
20260830063012 63 211 1.7 4.3 0.00 0.00 0.00 58 1032.0
20260830061516 63 328 0.9 3.5 0.00 0.00 0.00 57 1032.0
20260830060008 63 256 0.0 4.3 0.00 0.00 0.00 59 1032.2
20260830054512 63 234 1.7 5.2 0.00 0.00 0.00 59 1032.4